www.dot.state.il.us - /desenv/hwystds/All Web 209 DGNs/


[To Parent Directory]

Friday, September 14, 2007 9:36 AM 26396672 1_Rev209_AllHighwayStandards_DGN.exe
Friday, September 14, 2007 9:38 AM 450560 1_Rev209_Div000_DGN.exe
Friday, September 14, 2007 9:39 AM 494080 1_Rev209_Div200_DGN.exe
Friday, September 14, 2007 9:40 AM 146944 1_Rev209_Div300_DGN.exe
Friday, September 14, 2007 9:49 AM 4909056 1_Rev209_Div400_DGN.exe
Friday, September 14, 2007 9:49 AM 3975680 1_Rev209_Div500_DGN.exe
Friday, September 14, 2007 9:50 AM 9371136 1_Rev209_Div600_DGN.exe
Friday, September 14, 2007 9:51 AM 3605504 1_Rev209_Div700_DGN.exe
Friday, September 14, 2007 9:52 AM 2225152 1_Rev209_Div800_DGN.exe
Friday, September 14, 2007 9:52 AM 1529344 1_Rev209_DivBLR_DGN.exe
Wednesday, September 05, 2007 1:27 PM 368128 209-000001-05_StandardSymbolsAbbreviations&Patterns.dgn
Tuesday, June 27, 2006 1:22 PM 60928 209-001001-01_AreasOfReinfRebars.dgn
Tuesday, June 27, 2006 1:23 PM 61440 209-001006_DecimalOfInch&Foot.dgn
Wednesday, September 05, 2007 1:29 PM 69632 209-202001-01_EarthMedDitchCheck.dgn
Wednesday, September 05, 2007 1:30 PM 363008 209-280001-04_TempErosionCntrlSystems.dgn
Wednesday, September 05, 2007 1:31 PM 112128 209-285001-02_FabricFormedConcRevetmentMats.dgn
Wednesday, September 05, 2007 1:32 PM 135680 209-353001-04_PCCBseCseWithHMABind&SurfCses.dgn
Wednesday, September 05, 2007 1:33 PM 143872 209-406001-05_EntrRampTermFlexPvmt.dgn
Wednesday, September 05, 2007 1:34 PM 275968 209-406101-04_ExitRampTerminalFlexiblePvmt.dgn
Wednesday, September 05, 2007 1:35 PM 114688 209-406201-01_MailboxTurnout.dgn
Wednesday, September 05, 2007 1:36 PM 244224 209-420001-07_PavementJoints.dgn
Wednesday, September 05, 2007 1:37 PM 86528 209-420101-04_24ftJointedPCCPvmt.dgn
Wednesday, September 05, 2007 1:39 PM 118272 209-420106-04_36ftJointedPCCPvmt.dgn
Wednesday, September 05, 2007 1:40 PM 117760 209-420111-02_PCCPvmtRoundouts.dgn
Wednesday, September 05, 2007 1:41 PM 235520 209-420201-07_EntrRampTerm-PCCAdjToPCC.dgn
Wednesday, September 05, 2007 1:42 PM 241664 209-420206-08_EntrRampTerm-PCCAdjToCRC.dgn
Wednesday, September 05, 2007 1:44 PM 297472 209-420301-04_ExitRampTerm-PCCAdjToPCC.dgn
Wednesday, September 05, 2007 1:45 PM 304640 209-420306-06_ExitRampTerm-PCCAdjToCRC.dgn
Wednesday, September 05, 2007 1:46 PM 325120 209-420401-06_BridgeApproachPvmt.dgn
Wednesday, September 05, 2007 1:47 PM 115200 209-420501-04_PCCPvmt&PCCBseCseAdjToRRGradeXing.dgn
Wednesday, September 05, 2007 1:47 PM 96768 209-420601-05_24ftPCCPvmt.dgn
Wednesday, September 05, 2007 1:48 PM 86016 209-420701-02_PavementFabric.dgn
Wednesday, September 05, 2007 1:50 PM 75776 209-421001-02_BarReinfForCRCPvmt.dgn
Wednesday, September 05, 2007 1:51 PM 357376 209-421101-07_24ftCRCPvmt-wWideFlangeBeamTermJt.dgn
Wednesday, September 05, 2007 1:51 PM 349184 209-421106-07_36ftCRCPvmt-wWideFlangeBeamTermJt.dgn
Wednesday, September 05, 2007 1:52 PM 347136 209-421201-06_24ftCRCPvmt-wLugSys.dgn
Wednesday, September 05, 2007 1:53 PM 364032 209-421206-06_36ftCRCPvmt-wLugSys.dgn
Thursday, September 13, 2007 8:53 AM 236032 209-424001-05_CurbRampsForSidewalk.dgn
Wednesday, September 05, 2007 1:55 PM 154624 209-442001-04_ClassAPatches.dgn
Wednesday, September 05, 2007 1:56 PM 309760 209-442101-07_ClassBPatches.dgn
Wednesday, September 05, 2007 1:57 PM 188928 209-442201-03_ClassC&DPatches.dgn
Wednesday, September 05, 2007 1:58 PM 126464 209-482001-02_HMAShldAdjToFlexPvmt.dgn
Wednesday, September 05, 2007 1:58 PM 72704 209-482006-03_HMAShldAdjToRigidPvmt.dgn
Thursday, September 13, 2007 8:27 AM 158720 209-482011-03_HMAShldStrips(Shlds)wResurfOrWiden&ResurfProj.dgn
Wednesday, September 05, 2007 2:00 PM 145408 209-483001-04_PCCShld.dgn
Tuesday, June 27, 2006 2:37 PM 189440 209-509001_TubularThrieBeamRetrofitRailForBridge.dgn
Tuesday, June 27, 2006 2:38 PM 96256 209-515001-02_NamePlateForBridges.dgn
Tuesday, June 27, 2006 2:39 PM 72192 209-542001-01_ReinfConcEndSect-wParallelWngwalls12-48inDiaRtAngle.dgn
Tuesday, June 27, 2006 2:41 PM 79872 209-542101-01_ReinfConcEndSectForPipeCulv15-36inDiaRtAngle.dgn
Tuesday, June 27, 2006 2:42 PM 111104 209-542106-01_ReinfConcEndSectForPipeCulv42-60inDiaRtAngle.dgn
Tuesday, June 27, 2006 2:43 PM 138240 209-542111-01_ReinfConcEndSectForPipeCulv66-84inDiaRtAngle.dgn
Tuesday, June 27, 2006 2:45 PM 148992 209-542116-01_ReinfConcEndSectForMultPipeCulv15-36inDiaRtAngle.dgn
Tuesday, June 27, 2006 2:46 PM 161280 209-542121-01_ReinfConcEndSectForMultPipeCulv42-60inDiaRtAngle.dgn
Thursday, June 29, 2006 1:12 PM 267776 209-542201-01_ReinfConcEndSectForPipeCulv15-36inDiaSkewed.dgn
Tuesday, June 27, 2006 2:50 PM 162304 209-542206_ReinfConcEndSectForPipeCulv42-60inDiaSkewed.dgn
Tuesday, June 27, 2006 2:51 PM 81920 209-542301-01_PrecastReinfConcFlaredEndSect.dgn
Tuesday, June 27, 2006 2:52 PM 83456 209-542306-01_PrecastReinfConcEllipticalFlaredEndSect.dgn
Tuesday, June 27, 2006 2:53 PM 228352 209-542311_GratingForConcFlaredEndSection24-54inPipe.dgn
Tuesday, June 27, 2006 2:53 PM 84992 209-542401_MetalEndSectForPipeCulv.dgn
Tuesday, June 27, 2006 2:54 PM 84480 209-542406_MetalEndSectForPipeArch.dgn
Tuesday, June 27, 2006 2:55 PM 196608 209-542501-01_InletBoxTypeA24in.dgn
Tuesday, June 27, 2006 3:34 PM 212480 209-542506-01_InletBoxTypeB24in.dgn
Tuesday, June 27, 2006 3:35 PM 225280 209-542511-01_InletBoxTypeC24in.dgn
Tuesday, June 27, 2006 3:36 PM 247808 209-542516-01_InletBoxTypeD24in.dgn
Tuesday, June 27, 2006 3:37 PM 261120 209-542521-01_InletBoxTypeE24in.dgn
Tuesday, June 27, 2006 3:38 PM 253440 209-542526-01_InletBoxTypeF24in.dgn
Tuesday, June 27, 2006 3:39 PM 245760 209-542531-02_InletBoxTypeG24in.dgn
Tuesday, June 27, 2006 3:40 PM 306176 209-542536-01_InletBoxTypeA36in.dgn
Tuesday, June 27, 2006 3:41 PM 291840 209-542541-01_InletBoxTypeA48in.dgn
Tuesday, June 27, 2006 3:44 PM 235520 209-542546_FlushInletBoxForMedian.dgn
Tuesday, June 27, 2006 3:46 PM 50176 209-542601_RCPipeElbow.dgn
Tuesday, June 27, 2006 3:46 PM 165376 209-542606_RCPipeTee.dgn
Wednesday, September 05, 2007 2:01 PM 205312 209-601001-02_SubSurfDrains.dgn
Tuesday, June 27, 2006 3:49 PM 55296 209-601101_ConcHdwForPipeDrain.dgn
Tuesday, June 27, 2006 3:52 PM 105472 209-602001_CatchBasin-TypeA.dgn
Tuesday, June 27, 2006 3:53 PM 153088 209-602006-01_CatchBasin-TypeB.dgn
Tuesday, June 27, 2006 3:59 PM 82432 209-602011_CatchBasin-TypeC.dgn
Tuesday, June 27, 2006 4:02 PM 134656 209-602016_CatchBasin-TypeD.dgn
Tuesday, June 27, 2006 4:03 PM 215040 209-602101-01_DrainStruc-Type1&2&3.dgn
Tuesday, June 27, 2006 4:19 PM 215552 209-602106_DrainStruc-Type4&5&6.dgn
Wednesday, June 28, 2006 8:19 AM 68608 209-602301-01_Inlet-TypeA.dgn
Wednesday, June 28, 2006 8:21 AM 136192 209-602306-01_Inlet-TypeB.dgn
Wednesday, June 28, 2006 8:23 AM 124928 209-602401-01_Manhole-TypeA.dgn
Wednesday, June 28, 2006 8:34 AM 114176 209-602406-02_Manhole-TypeA72inDia.dgn
Wednesday, June 28, 2006 8:35 AM 138752 209-602411_Manhole-TypeA7inDia.dgn
Wednesday, June 28, 2006 8:36 AM 139264 209-602416_Manhole-TypeA8inDia.dgn
Wednesday, June 28, 2006 8:37 AM 139264 209-602421_Manhole-TypeA9inDia.dgn
Wednesday, June 28, 2006 8:37 AM 108032 209-602501_ValveVault-TypeA.dgn
Wednesday, June 28, 2006 8:39 AM 91136 209-602601-01_PrecastReinfConcFlatSlabTop.dgn
Wednesday, June 28, 2006 8:40 AM 92160 209-602701-01_CastIronSteps.dgn
Wednesday, June 28, 2006 8:40 AM 84992 209-604001-02_Frame&Lids-Type1.dgn
Wednesday, September 05, 2007 2:02 PM 109056 209-604006-02_Frame&GrateType3.dgn
Wednesday, September 05, 2007 2:03 PM 122368 209-604011-02_Frame&GrateType3V.dgn
Wednesday, June 28, 2006 8:42 AM 77312 209-604016-01_Frame&GrateType4.dgn
Wednesday, June 28, 2006 8:43 AM 92160 209-604021-01_BaseFrame&LidsType5.dgn
Wednesday, June 28, 2006 8:44 AM 93184 209-604026-01_Frame&GrateType6.dgn
Wednesday, June 28, 2006 8:45 AM 52736 209-604031-01_GrateType7.dgn
Wednesday, June 28, 2006 8:45 AM 61440 209-604036-01_GrateType8.dgn
Wednesday, June 28, 2006 8:46 AM 87040 209-604041-01_Frame&GrateType9.dgn
Wednesday, June 28, 2006 8:47 AM 70144 209-604046-01_Frame&GrateType10.dgn
Wednesday, June 28, 2006 8:48 AM 130560 209-604051-02_Frame&GrateType11.dgn
Wednesday, June 28, 2006 8:49 AM 131072 209-604056-02_Frame&GrateType11V.dgn
Wednesday, June 28, 2006 8:49 AM 76288 209-604061-01_Frame&GrateType12.dgn
Wednesday, June 28, 2006 8:50 AM 94208 209-604066-01_Frame&LidType15.dgn
Wednesday, June 28, 2006 8:51 AM 97792 209-604071-03_Frame&GrateType20.dgn
Wednesday, June 28, 2006 8:52 AM 155648 209-604076-03_Frame&GrateType21.dgn
Wednesday, June 28, 2006 8:53 AM 157184 209-604081-03_Frame&GrateType22.dgn
Wednesday, June 28, 2006 8:54 AM 150528 209-604086-01_Frame&GrateType23.dgn
Wednesday, June 28, 2006 8:54 AM 128512 209-604091-01_Frame&GrateType24.dgn
Wednesday, June 28, 2006 8:57 AM 133632 209-604101_MedianInletFor24inRCPipe.dgn
Wednesday, June 28, 2006 8:58 AM 137216 209-604106_MedianInletFor36inRCPipe.dgn
Wednesday, June 28, 2006 8:59 AM 165888 209-606001-03_ConcCurbTypeB&ComboConcC&G.dgn
Wednesday, June 28, 2006 9:01 AM 219648 209-606006-01_OutletsForConcC&G-TypeB-6.24.dgn
Wednesday, September 05, 2007 2:03 PM 144384 209-606101-03_TypeAGut-InlOutl&Entr.dgn
Wednesday, June 28, 2006 9:31 AM 118272 209-606106-03_OutlType1ForTypeAGut.dgn
Wednesday, June 28, 2006 9:31 AM 131072 209-606111-02_OutlType2ForTypeAGut.dgn
Wednesday, June 28, 2006 9:34 AM 127488 209-606201-01_TypeBGut-InlOutl&Entr.dgn
Wednesday, June 28, 2006 9:35 AM 99840 209-606206-02_OutlType1ForTypeBGut.dgn
Wednesday, June 28, 2006 9:36 AM 118272 209-606211-02_OutlType2ForTypeBGut.dgn
Wednesday, June 28, 2006 9:37 AM 199168 209-606301-03_PCCIslands&Medians.dgn
Wednesday, June 28, 2006 9:37 AM 93184 209-606306-02_CorrugatedPCCMedians.dgn
Wednesday, June 28, 2006 9:38 AM 108544 209-606401_PavedDitch.dgn
Wednesday, June 28, 2006 9:39 AM 177152 209-609001-03_BridgeApproachShldPvmt&Drain.dgn
Wednesday, June 28, 2006 9:58 AM 203776 209-609006-03_BridgeApproachPvmt(DrainDetail).dgn
Wednesday, June 28, 2006 10:21 AM 195584 209-610001-03_ShldInletWithCurb.dgn
Thursday, June 29, 2006 1:16 PM 221184 209-630001-07_SteelPlateBeamGrdrail.dgn
Thursday, June 29, 2006 1:17 PM 137728 209-630101-07_GuardrailMountedOnExCulv.dgn
Wednesday, September 05, 2007 2:04 PM 96256 209-630201-05_PCC-BitStb@SteelPlateBeamGrdRail.dgn
Thursday, June 29, 2006 1:19 PM 89600 209-630301-04_ShldWidenForType1GrdrailTerms.dgn
Wednesday, September 05, 2007 2:05 PM 125952 209-631006-05_TrafBarTermType1B.dgn
Wednesday, September 05, 2007 2:05 PM 110592 209-631011-04_TrafBarTermType2.dgn
Wednesday, September 05, 2007 2:06 PM 161280 209-631026-04_TrafBarTermType5.dgn
Thursday, June 29, 2006 1:23 PM 224256 209-631031-06_TrafBarTermType6.dgn
Thursday, June 29, 2006 1:24 PM 245248 209-631032-03_TrafBarTermType6A.dgn
Thursday, June 29, 2006 1:25 PM 177664 209-631033-02_TrafBarTermType6B.dgn
Thursday, June 29, 2006 1:30 PM 125952 209-631036-04_TrafBarTermType8.dgn
Thursday, June 29, 2006 1:31 PM 112128 209-631041-01_TrafBarTermType9.dgn
Thursday, June 29, 2006 1:32 PM 107008 209-631046-03_TrafBarTermType10.dgn
Thursday, June 29, 2006 2:05 PM 105984 209-631051-01_TrafBarTermType11.dgn
Thursday, June 29, 2006 2:07 PM 81408 209-631056-01_TrafBarTermType12.dgn
Thursday, June 29, 2006 2:08 PM 84992 209-635001_Delineators.dgn
Thursday, June 29, 2006 2:09 PM 84480 209-635006-02_Reflector&TermMrkrPlacemnt.dgn
Thursday, June 29, 2006 2:10 PM 156160 209-635011-01_ReflectorMrkr&MountDetails.dgn
Thursday, June 29, 2006 2:11 PM 251392 209-636001-01_CableRdGrd-SingleStrand.dgn
Wednesday, September 05, 2007 2:07 PM 140288 209-637001-03_ConcBarrierDblFace32in.dgn
Wednesday, September 05, 2007 2:08 PM 145408 209-637006-01_ConcBarrierDblFace42in.dgn
Thursday, June 29, 2006 2:14 PM 89600 209-638001-01_GlareScreenBlades.dgn
Thursday, June 29, 2006 2:14 PM 80384 209-638101-01_ConcGlareScreen.dgn
Thursday, June 29, 2006 2:15 PM 125952 209-639001-01_Sightscrn-PrecstPrestressConcPanelWall.dgn
Thursday, June 29, 2006 2:40 PM 186880 209-640001_Sightscrn-ChainLinkFence.dgn
Thursday, June 29, 2006 2:41 PM 105472 209-641001_Sightscrn-CedarStckadeFenceTypeS.dgn
Thursday, June 29, 2006 2:55 PM 83968 209-641006_Sightscrn-WoodPlankFenceTypeP.dgn
Thursday, June 29, 2006 2:57 PM 136192 209-642001_ShldRumbleStrips.dgn
Thursday, June 29, 2006 2:58 PM 399872 209-664001-01_ChainLinkFence.dgn
Thursday, June 29, 2006 3:00 PM 392192 209-665001-01_WovenWireFence.dgn
Thursday, June 29, 2006 3:02 PM 66048 209-666001_ROWMrkrs.dgn
Thursday, June 29, 2006 3:04 PM 70656 209-667001_DrainageMrkrs.dgn
Thursday, June 29, 2006 3:06 PM 111616 209-667101_PermanentSurveyMrkrs.dgn
Thursday, June 29, 2006 3:07 PM 68608 209-668001_MethOfResetting-USGS&NGS-Benchmarks.dgn
Thursday, June 29, 2006 3:08 PM 55808 209-701001-01_OffRdOp-2L2W-15ftMinFromEOP-45MPH+.dgn
Thursday, June 29, 2006 3:08 PM 60928 209-701006-02_OffRdOp-2L2W-15ftToEOP-45MPH+.dgn
Thursday, June 29, 2006 3:09 PM 61952 209-701011-01_OffRdMovingOp-2L2W-DayOnly-45MPH+.dgn
Thursday, June 29, 2006 3:12 PM 62464 209-701101-01_OffRdOp-MultiLn-LessThan15ftToEOP.dgn
Thursday, June 29, 2006 3:13 PM 56320 209-701106-01_OffRdOp-MultiLn-MoreThan15ftAway.dgn
Thursday, June 29, 2006 3:13 PM 65024 209-701201-02_LnClosure2L2W-DayOnly.dgn
Thursday, June 29, 2006 3:14 PM 63488 209-701206-01_LnClosure2L2W-NightOnly45MPH+.dgn
Thursday, June 29, 2006 3:14 PM 65024 209-701301-02_LnClosure2L2W-ShortTimeOp.dgn
Thursday, June 29, 2006 3:15 PM 64000 209-701306-01_LnClosure2L2W-SlowMoveOpDayOnly45MPH+.dgn
Thursday, June 29, 2006 3:16 PM 66048 209-701311-02_LnClosure2L2W-MovingOpDayOnly.dgn
Thursday, June 29, 2006 3:17 PM 127488 209-701316-03_LnClosure2L2W-BridgeRepair45MPH+.dgn
Wednesday, September 05, 2007 2:09 PM 196096 209-701321-09 LnClosure2L2W-BridgeRepair+Barrier.dgn
Thursday, June 29, 2006 3:18 PM 72704 209-701326-02_LnClosure2L2W-PvmtWidening45MPH+.dgn
Thursday, June 29, 2006 3:19 PM 89088 209-701331-02_LnClosure2L2W+RunAround45MPH+.dgn
Thursday, June 29, 2006 3:19 PM 73728 209-701336-04_LnClosure2L2W-WorkAreasInSeries45MPH+.dgn
Thursday, June 29, 2006 3:20 PM 72192 209-701400-02_ApprchToLnClosure-FrwayExpway.dgn
Wednesday, September 05, 2007 2:09 PM 82432 209-701401-04_LnClosureFrwayExpway.dgn
Wednesday, September 05, 2007 2:10 PM 109056 209-701402-06_LnClosureFrwayExpway+Barrier.dgn
Thursday, June 29, 2006 3:22 PM 80384 209-701406-04_LnClosureFrwayExpway-DayOpOnly.dgn
Wednesday, September 05, 2007 2:11 PM 117248 209-701411-04_LnClosureMultiLn-EntrOrExitRamp45MPH+.dgn
Thursday, June 29, 2006 3:23 PM 96256 209-701416-05_LnClosureFrwayExpway+Crossover&Barrier.dgn
Thursday, June 29, 2006 3:24 PM 84480 209-701421-01_LnClosureMultiLn-DayOpOnly45-55MPH.dgn
Thursday, June 29, 2006 3:25 PM 86528 209-701422-01_LnClosureMultiLn-45-55MPH.dgn
Wednesday, September 05, 2007 2:12 PM 141824 209-701423-02_LnClosureMultiln+Barrier45-55MPH.dgn
Thursday, June 29, 2006 3:26 PM 81408 209-701426-02_LnClosureMultiLn-IntermittantOrMovingOp45MPH+.dgn
Wednesday, September 05, 2007 2:13 PM 96768 209-701431-04_LnClosureMultiLnUndivided+Crossover45-55MPH.dgn
Thursday, June 29, 2006 3:28 PM 91136 209-701446_TwoLnClosure-FrwayExpway.dgn
Wednesday, September 05, 2007 2:13 PM 76288 209-701501-04_UrbanLnClosure2L2W-Undivided.dgn
Wednesday, September 05, 2007 2:14 PM 111104 209-701502-02_UrbanLnClosure2L2W+BidirectLeftTurnLn.dgn
Wednesday, September 05, 2007 2:15 PM 108544 209-701601-05_UrbanLnClosureMultiLn1W2W+NontrvsableMed.dgn
Wednesday, September 05, 2007 2:16 PM 182784 209-701602-03_UrbanLnClosureMultiLn2W+BidirectLeftTurnLn.dgn
Wednesday, September 05, 2007 2:17 PM 121344 209-701606-05_UrbanLnClosureMultiLn2W+MountableMed.dgn
Wednesday, September 05, 2007 2:18 PM 89088 209-701701-05_UrbanLnClosureMultiLnIntersection.dgn
Friday, June 30, 2006 8:31 AM 78336 209-701801-03_LnClosureMultiLn1W2W+CrosswalkOrSWClosure.dgn
Wednesday, September 05, 2007 2:19 PM 228352 209-701901_TrafCntrlDevices.dgn
Wednesday, September 05, 2007 2:20 PM 221184 209-704001-04_TempConcBarrier.dgn
Friday, June 30, 2006 9:00 AM 72192 209-720001_SignPanelMountDetails.dgn
Friday, June 30, 2006 9:01 AM 153600 209-720006-01_SignPanelErectDetails.dgn
Friday, June 30, 2006 9:05 AM 53760 209-720011_MetalPostsForSignsMrkrs&Delineators.dgn
Friday, June 30, 2006 9:05 AM 75264 209-720016-01_MastArmMountedStNameSigns.dgn
Friday, June 30, 2006 9:06 AM 170496 209-720021-01_SignPanels-ExtrudedAlumType.dgn
Friday, June 30, 2006 9:07 AM 153600 209-728001_TelescopingSteelSignSupport.dgn
Friday, June 30, 2006 9:09 AM 62464 209-729001_AppOfTypesA&BPosts.dgn
Friday, June 30, 2006 9:10 AM 153600 209-731001_BaseForTelescopingSteelSignSupport.dgn
Friday, June 30, 2006 9:56 AM 168448 209-780001-01_TypicalPvmtMrkings.dgn
Friday, June 30, 2006 9:58 AM 80896 209-781001-02_TypicalAppRaisedReflcPvmtMrkrs.dgn
Friday, June 30, 2006 9:59 AM 79872 209-805001_ElecSrvcInstallDetails.dgn
Friday, June 30, 2006 10:00 AM 101888 209-814001-01_Handholes.dgn
Friday, June 30, 2006 10:01 AM 162816 209-814006-01_DoubleHandholes.dgn
Friday, June 30, 2006 10:44 AM 83968 209-857001_StdPhaseDesignationDiagrams&PhaseSeq.dgn
Friday, June 30, 2006 10:45 AM 61440 209-857006_SupervisedRRInterconnectCircuit-.dgn
Friday, June 30, 2006 10:46 AM 83968 209-862001_UPS.dgn
Monday, July 24, 2006 8:58 AM 744448 209-873001-01_TrafSignalGround&Bond.dgn
Friday, June 30, 2006 10:48 AM 169984 209-876001_PedestrianPushButtonPost.dgn
Wednesday, September 05, 2007 2:21 PM 87552 209-877001-03_SteelMastArmAssembly&Pole16'thre55'.dgn
Wednesday, September 05, 2007 2:22 PM 212992 209-877002_SteelMastArmAssembly&Pole56'thru75'.dgn
Friday, June 30, 2006 10:49 AM 84992 209-877006-02_SteelMastArmAssembly&Pole+DualMastArms.dgn
Wednesday, September 05, 2007 2:23 PM 103424 209-877011-03_SteelComboMastArmAssembly&Pole16'thru55'.dgn
Wednesday, September 05, 2007 2:23 PM 139264 209-877012_SteelComboMastArmAssembly&Pole56'thru75'.dgn
Wednesday, September 05, 2007 2:24 PM 169984 209-878001-06_ConcreteFoundationDetails.dgn
Friday, June 30, 2006 10:54 AM 100864 209-880001_SpanWireMountSignals&FlashBeaconInstall.dgn
Friday, June 30, 2006 10:54 AM 83456 209-880006_TrfSignalMountDetails-Post&BracketMount.dgn
Friday, June 30, 2006 10:57 AM 153088 209-886001_DetectorLoopInstallations.dgn
Friday, June 30, 2006 10:58 AM 49664 209-886006_TypicalLayoutsForDetectionLoops.dgn
Friday, June 30, 2006 11:00 AM 66048 209-BLR02-2_CombSect&ROWMarkers.dgn
Friday, June 30, 2006 11:00 AM 70144 209-BLR06-5_SectMarkers.dgn
Friday, June 30, 2006 11:01 AM 217088 209-BLR10-5_PCCPvmtSpecial-NonReinf.dgn
Friday, June 30, 2006 11:02 AM 161792 209-BLR14-9_PCCPvmt-NonReinf.dgn
Friday, June 30, 2006 11:04 AM 281088 209-BLR17-3_TrafCntrlDevices-DayLaborConstr.dgn
Friday, June 30, 2006 11:05 AM 60416 209-BLR18-4_TrafCntrlDevices-DayLaborMaint.dgn
Wednesday, September 05, 2007 2:25 PM 186368 209-BLR20-5_TrafBarrierTermType5R.dgn
Wednesday, September 05, 2007 2:25 PM 60416 209-BLR21-7_TypAppTrafCntrlDevices-ConstrOnRuralLocalHwys.dgn
Wednesday, September 05, 2007 2:26 PM 60928 209-BLR22-5_TypAppTrafCntrlDevices-ConstrOnRuralLocalHwys(2L2W-RdClsdToThruTraf).dgn
Wednesday, September 05, 2007 2:27 PM 172032 209-BLR23-2_TrafBarrierTermType1.dgn
Friday, June 30, 2006 11:10 AM 119296 209-BLR24-1_MailboxTurn-LocalRds.dgn
Friday, June 30, 2006 11:22 AM 36352 209-BLR25_Type1ABarrForNonNHSRts.dgn
Wednesday, September 05, 2007 2:28 PM 229376 209-BLR26_SteelPlateBeemGR27.5inchHt.dgn
Wednesday, September 05, 2007 2:29 PM 303616 209-BLR27_TrafBarTermType5A.dgn